Showing default

CTC-0, 62401

Orbit data source: Space-Track

CTC-0, 62401 is an American payload satellite in LEO that was launched on Sat, 21 Dec 2024 UTC via an FALCON 9 launch vehicle from the Air Force Western Test Range (AFWTR). Payload-class satellites include a variety of spacecraft equipped with specific instruments for various scientific and technological missions. These include communications satellites like Starlink; space stations such as the ISS; scientific satellites like the Hubble; Earth observation satellites from companies like Planet Labs, Umbra, and HawkEye 360; GPS; miniature CubeSats for education and research; and military/defense satellites.

Loading next visibility...
Identifier
62401, 2024-247AA
Orbit
LEO
Country
Flag of USUS
Related business
None
Manufacturer
Endurosat
Mission
Operational Commercial Communications
Bus & Motor
CUBESAT 8U, Unknown motor
Mass
9.75 kg wet, 9.75 kg dry
Launch date (UTC)
2024-12-21 (1 year ago)
Launch vehicle
FALCON 9
Launch site
Air Force Western Test Range (AFWTR)
Object type
Payload
Rocket body
Debris
Shape & HBR
Box, 0.3 m
Radar Cross Section
0.154 m², Small (<0.1 m²)

Expand to show TLE details & history
Last TLE update: 13 hours ago

TLE from 13 hours ago
0 CTC-0
1 62401U 24247AA  26094.04186167  .00034390  00000-0  93678-3 0  9991
2 62401  44.9733 321.6782 0007034 197.4296 162.6350 15.36934629 71803
Epoch: 2026-04-04T01:00Z
TLE epoch observation values (Epoch: 2026-04-04T01:00:16.848Z)
Latitude
0.00001°
Longitude
114.24069°
Altitude
459.763 km
Speed
7.636 km/s
True Right ascension
21h 26m 42s
True Declination
0° 00' 00"
Sunlit
Object was in daylight at epoch
Visualization orbit readout
Latitude
Unknown
Longitude
Unknown
Altitude
Unknown
Speed
Unknown
Apparent Right ascension
Unknown
Apparent Declination
Unknown
Sunlit
N/A
Visualization observer readout
Local Sidereal Time
20:18:29
Azimuth
Unknown
Elevation
Unknown
Doppler factor
Unknown
Orbital elements
Apogee altitude
461.608 km
Perigee altitude
451.993 km
Semi-major axis
6,834.937 km
Eccentricity
0.0007
Inclination
44.9733°
RAAN
321.6782°
Arg. of periapsis
197.4296°
True anomaly
162.65904°
Mean anomaly
162.635°
Eccentric anomaly
162.64702°
Mean motion
3.84097 °/min
Orbital period
93.73 mins
BSTAR
0.00093678
Loading maneuver chart data...
Computing Atmospheric mass density...
Loading historical data...
Loading historical data...
Loading historical data...
Loading historical data...
Loading historical data...
Loading historical data...
Loading historical data...

Documentation

Showing up to 5 results
|